TIME,DELAY(SENSOR),PRES,OXYGEN,RAWTEMP,T(OPTODE),TCPHASE,FLUOR,BETA(BETA700),BETA(BETA412),BETA(BETA440),CDOM,C(CSC),ED(ED412.20),ED(ED444.00),ED(ED489.60),ED(ED554.30),LU(LU412.10),LU(LU443.90),LU(LU489.70),LU(LU554.70),COMP,TILTX,TILTY,CHECK
1347160391,5810,909.8900146484375000,33.7166404724121100,556.1052246093750000,4.6065430641174320,56.4492111206054700,54,100,101,79,83,15561,0,0,0,0,2147126272,2147776420,2147572416,2147571209,1179,3,13,56998
1347163988,5812,983.8699951171875000,37.9938583374023440,562.3823242187500000,4.4120388031005860,55.8386383056640600,55,97,100,79,83,15553,0,0,0,0,2147121024,2147775314,2147571977,2147571309,379,3,13,16978
1347167588,5810,989.2999877929688000,37.6137199401855500,563.8195800781250000,4.3674578666687010,55.9084205627441400,55,100,100,78,83,15558,0,0,0,0,2147122642,2147777142,2147569389,2147570505,3568,3,13,47985
1347171188,5807,994.2999877929688000,39.2737884521484400,565.7213745117188000,4.3084430694580080,55.6813087463378900,55,98,100,79,81,15559,0,0,0,0,2147122002,2147778276,2147576228,2147572050,394,3,13,33722
1347174788,5809,997.3200073242188000,38.9333496093750000,566.1392211914062000,4.2954730987548830,55.7317008972168000,55,100,101,78,83,15558,0,0,0,0,2147123008,2147772507,2147574701,2147570816,216,3,13,52519
1347178388,5810,1007.5800170898438000,38.7710494995117200,565.9224243164062000,4.3022041320800780,55.7576217651367200,55,98,101,79,83,15559,0,0,0,0,2147122386,2147770532,2147574646,2147571172,2958,3,13,32403
1347181988,5808,1006.7500000000000000,39.2549400329589840,565.9213867187500000,4.3022332191467285,55.6832008361816400,55,98,102,78,84,15559,0,0,0,0,2147122587,2147777362,2147571081,2147573942,415,3,13,41727
1347185588,5808,1009.0599975585938000,38.8084411621093750,565.9990844726562000,4.2998218536376950,55.7552108764648440,55,101,101,79,83,15559,0,0,0,0,2147122962,2147772845,2147572114,2147571108,3282,3,13,4200
1347189188,5810,1012.0700073242188000,38.1670989990234400,566.0375976562500000,4.2986278533935550,55.8541183471679700,54,99,102,78,83,15552,0,0,0,0,2147121700,2147773961,2147576512,2147572882,3567,3,13,62012
1347192788,5808,1011.2199707031250000,38.4818611145019500,565.7338256835938000,4.3080577850341800,55.8024787902832000,54,98,101,80,83,15553,0,0,0,0,2147121170,2147774052,2147576356,2147569828,222,3,13,41789
1347196388,5807,1011.0599975585938000,37.9916610717773440,565.6182861328125000,4.3116421699523930,55.8685417175293000,54,97,100,79,81,15551,0,0,0,0,2147120493,2147777024,2147571437,2147567442,205,3,13,64794
1347199988,5810,1008.9899902343750000,37.9331512451171900,566.0609741210938000,4.2979011535644530,55.8851890563964840,56,106,102,78,83,15547,0,0,0,0,2147122916,2147769051,2147577398,2147570770,222,3,13,52741
1347203588,5809,1012.4500122070312000,37.7296791076660160,565.6350708007812000,4.3111228942871090,55.9101295471191400,55,98,100,77,83,15549,0,0,0,0,2147120448,2147773677,2147569609,2147571044,151,3,13,25380
1347207188,5808,1015.6199951171875000,37.9157981872558600,565.6013793945312000,4.3121662139892580,55.8863716125488300,56,98,100,78,83,15546,0,0,0,0,2147121234,2147774500,2147572041,2147569124,865,3,13,64912
1347210788,5808,1011.4600219726562000,38.0448303222656250,566.1441040039062000,4.2953219413757320,55.8726997375488300,55,98,102,78,83,15543,0,0,0,0,2147123666,2147775652,2147574884,2147572187,3464,3,13,53409
1347214388,5811,1006.2999877929688000,38.6985816955566400,567.0678710937500000,4.2666420936584470,55.7776908874511700,54,98,101,78,83,15548,0,0,0,0,2147122102,2147774902,2147570669,2147570934,58,3,13,52820
1347217988,5810,1004.5999755859375000,38.7635192871093750,568.3947143554688000,4.2254347801208500,55.7867317199707000,55,100,101,78,82,15543,0,0,0,0,2147125485,2147772699,2147573092,2147569115,3565,3,13,23382
1347221588,5810,1011.6599731445312000,38.6694984436035160,567.8524169921875000,4.2422790527343750,55.7946014404296900,56,99,100,78,84,15548,0,0,0,0,2147121773,2147775204,2147571913,2147569472,47,3,13,51092
1347225188,5810,1012.1400146484375000,39.2742614746093750,566.5906982421875000,4.2814579010009770,55.6854896545410160,55,98,101,78,83,15546,0,0,0,0,2147120621,2147776868,2147572178,2147574290,456,3,13,35505
1347228788,5808,1014.1400146484375000,38.8469505310058600,566.0703735351562000,4.2976112365722660,55.7455101013183600,56,98,101,78,82,15544,0,0,0,0,2147121947,2147774720,2147572004,2147569636,159,3,13,37092
1347232388,5810,1015.0499877929688000,39.0294914245605500,566.0491943359375000,4.2982668876647950,55.7180099487304700,55,98,100,79,84,15544,0,0,0,0,2147120338,2147771410,2147575917,2147570578,114,3,13,14256
1347235988,5808,1012.3900146484375000,38.2619895935058600,566.2930297851562000,4.2906990051269530,55.8363113403320300,56,100,104,78,82,15536,0,0,0,0,2147123108,2147778358,2147575414,2147572909,290,3,13,950
1347239588,5810,1011.8499755859375000,38.5508689880371100,566.6286010742188000,4.2802810668945310,55.7961196899414060,54,98,103,78,83,15538,0,0,0,0,2147122870,2147768475,2147573403,2147568566,213,3,13,25089
1347243188,5810,1017.0900268554688000,39.4798316955566400,566.0045776367188000,4.2996520996093750,55.6514396667480500,55,97,100,79,83,15538,0,0,0,0,2147117924,2147772717,2147573110,2147570258,3251,3,13,4832
1347246788,5812,1024.3000488281250000,39.2109107971191400,565.9752807617188000,4.3005638122558590,55.6903190612793000,55,101,101,77,83,15535,0,0,0,0,2147119478,2147774363,2147573366,2147571437,78,3,13,6574
1347250388,5809,1023.9899902343750000,38.3260192871093750,565.9375000000000000,4.3017349243164060,55.8288116455078100,55,99,101,78,84,15532,0,0,0,0,2147118747,2147779163,2147576109,2147573165,198,3,13,58492
1347253988,5811,1017.0999755859375000,38.3240699768066400,566.0001831054688000,4.2997879981994630,55.8229789733886700,55,99,101,81,82,15534,0,0,0,0,2147120310,2147777069,2147574966,2147571958,159,3,13,15702
1347257588,5809,1012.9799804687500000,39.1999397277832000,566.6436157226562000,4.2798161506652830,55.6977806091308600,56,102,100,77,83,15533,0,0,0,0,2147121974,2147770971,2147572964,2147568603,3376,3,13,13078
1347261188,5808,1015.1699829101562000,39.4191894531250000,566.5573730468750000,4.2824921607971190,55.6686286926269500,55,100,101,79,82,15532,0,0,0,0,2147120100,2147768932,2147574262,2147569581,3431,3,13,51481
1347264788,5810,1015.9400024414062000,39.3151397705078100,566.6458129882812000,4.2797470092773440,55.6809196472168000,55,98,100,78,83,15531,0,0,0,0,2147122980,2147768914,2147573787,2147571145,3438,3,13,14537
1347268388,5811,1018.9699707031250000,39.3508491516113300,566.8582153320312000,4.2731509208679200,55.6786918640136700,56,100,102,78,82,15529,0,0,0,0,2147117476,2147775926,2147574198,2147569353,39,3,13,5027
1347271988,5810,1023.2800292968750000,39.6683006286621100,566.8057861328125000,4.2747797966003420,55.6284599304199200,55,98,101,78,83,15532,0,0,0,0,2147122486,2147771684,2147573540,2147569380,3472,3,13,51235
1347275588,5811,1018.4099731445312000,39.2319793701171900,566.4351196289062000,4.2862868309021000,55.6926002502441400,56,99,99,78,82,15530,0,0,0,0,2147121371,2147771154,2147575872,2147574692,338,3,13,37348
1347279188,5810,1020.2199707031250000,39.4850082397460940,566.5504150390625000,4.2827091217041020,55.6573600769043000,55,100,100,82,81,15531,0,0,0,0,2147124800,2147771419,2147572452,2147567579,221,3,13,34743
1347282788,5811,1017.0999755859375000,39.1498603820800800,566.8284912109375000,4.2740750312805180,55.7118797302246100,56,113,101,78,82,15528,0,0,0,0,2147121718,2147777572,2147570633,2147567981,115,3,13,59200
1347286388,5812,1020.1099853515625000,39.3235702514648440,566.9088134765625000,4.2715821266174320,55.6820716857910160,55,105,101,77,83,15530,0,0,0,0,2147120630,2147774811,2147574144,2147568027,14,3,13,44081
1347289988,5809,1022.5599975585938000,39.3627815246582000,566.7280883789062000,4.2771930694580080,55.6739006042480500,55,100,100,79,83,15525,0,0,0,0,2147121243,2147773924,2147574802,2147572717,187,3,13,35049
1347293588,5811,1017.2100219726562000,39.1570816040039060,566.9329833984375000,4.2708301544189450,55.7077598571777340,55,100,100,79,83,15529,0,0,0,0,2147124196,2147777609,2147569773,2147568923,97,3,13,2390
1347297188,5811,1021.5999755859375000,39.2002182006835940,566.9675292968750000,4.2697601318359375,55.7027397155761700,55,99,100,78,82,15529,0,0,0,0,2147121737,2147774061,2147574016,2147570176,320,3,13,30357
1347300788,5811,1021.0100097656250000,39.1134605407714840,567.0059204101562000,4.2685661315917970,55.7173385620117200,54,103,102,78,83,15526,0,0,0,0,2147120978,2147770075,2147570422,2147570203,3489,3,13,37379
1347304388,5810,1020.7700195312500000,39.2092285156250000,567.0203857421875000,4.2681159973144530,55.7021293640136700,55,101,102,78,83,15526,0,0,0,0,2147122962,2147770203,2147574555,2147569225,483,3,13,44661
1347305157,5808,1016.5700073242188000,39.0995483398437500,566.9890136718750000,4.2690911293029785,55.7164192199707000,54,98,100,77,83,15524,0,0,0,0,2147121764,2147777270,2147576813,2147569444,167,3,13,47327
